Date String (YYYY-MM-DD hh:mm:ss) UTC,Instrument flags,absolute air pressure of the measurement (hPa),sample flow rate (lpm),inlet stack bypass flow (lpm),air temperature of the measurement (°C),ambient temperature measured by the external sensor (°C),aerosol sample conditioner tube jacket temperature (°C),OPC LED temperature (°C),internal box temperature (°C),relative humidity of the measurement (%),span deviation,mass concentration of particles derived from Lorenz-Mie calculation of OPC scattering (μg/m³),mass concentration of particles derived from Lorenz-Mie calculation of OPC scattering (μg/m³),mass concentration of particles derived from Lorenz-Mie calculation of OPC scattering (μg/m³)
DateTimeUTC,F1_M11,P_M11,Q1_M11,Q2_M11,T1_M11,T2_M11,T3_M11,T4_M11,T5_M11,U1_M11,ZSPAN_M11,X0_M11,X2_M11,X1_M11
2023-12-09 02:00:00,SystemResetWarning,0824.9,5.00,000.00,020.8,019.8,000.0,029.3,022.0,20.5,0000.0,0004.06,0002.43,0001.70
2023-12-09 02:01:00,SystemResetWarning,0824.9,5.00,000.00,020.8,019.8,000.0,029.2,022.1,20.5,0000.0,0004.58,0002.41,0001.67
2023-12-09 02:02:00,SystemResetWarning,0824.9,5.00,000.00,020.8,019.8,000.0,029.2,022.0,20.5,0000.0,0004.50,0002.28,0001.63
2023-12-09 02:03:00,SystemResetWarning,0825.0,5.00,000.00,020.8,019.8,000.0,029.2,022.0,20.5,0000.0,0004.51,0002.28,0001.62
2023-12-09 02:04:00,SystemResetWarning,0825.0,5.00,000.00,020.8,019.8,000.0,029.2,022.0,20.5,0000.0,0004.45,0002.25,0001.58
2023-12-09 02:05:00,SystemResetWarning,0825.0,5.00,000.00,020.8,019.8,000.0,029.2,022.0,20.5,0000.0,0004.19,0002.17,0001.55
2023-12-09 02:06:00,SystemResetWarning,0825.0,4.99,000.00,020.8,019.8,000.0,029.2,022.0,20.5,0000.0,0004.20,0002.15,0001.53
2023-12-09 02:07:00,SystemResetWarning,0825.1,4.99,000.00,020.8,019.8,000.0,029.2,022.0,20.5,0000.0,0004.59,0002.20,0001.53
2023-12-09 02:08:00,SystemResetWarning,0825.1,5.01,000.00,020.8,019.8,000.0,029.2,022.1,20.5,0000.0,0004.61,0002.21,0001.52
2023-12-09 02:09:00,SystemResetWarning,0825.1,5.01,000.00,020.8,019.8,000.0,029.2,022.1,20.5,0000.0,0004.68,0002.23,0001.50
2023-12-09 02:10:00,SystemResetWarning,0825.1,4.99,000.00,020.8,019.8,000.0,029.2,022.1,20.5,0000.0,0004.97,0002.28,0001.49
2023-12-09 02:11:00,SystemResetWarning,0825.1,4.99,000.00,020.8,019.8,000.0,029.2,022.1,20.5,0000.0,0005.49,0002.24,0001.47
2023-12-09 02:12:00,SystemResetWarning,0825.2,4.99,000.00,020.8,019.8,000.0,029.2,022.1,20.5,0000.0,0005.01,0002.21,0001.47
2023-12-09 02:13:00,SystemResetWarning,0825.2,4.99,000.00,020.8,019.9,000.0,029.2,022.1,20.5,0000.0,0004.88,0002.24,0001.48
2023-12-09 02:14:00,SystemResetWarning,0825.2,5.00,000.00,020.8,019.9,000.0,029.2,022.1,20.5,0000.0,0004.81,0002.20,0001.46
2023-12-09 02:15:00,SystemResetWarning,0825.3,5.01,000.00,020.8,019.9,000.0,029.2,022.1,20.5,0000.0,0004.83,0002.19,0001.47
2023-12-09 02:16:00,SystemResetWarning,0825.2,5.01,000.00,020.8,019.9,000.0,029.2,022.1,20.5,0000.0,0005.04,0002.27,0001.47
2023-12-09 02:17:00,SystemResetWarning,0825.3,4.99,000.00,020.8,019.9,000.0,029.2,022.1,20.6,0000.0,0005.25,0002.33,0001.47
2023-12-09 02:18:00,SystemResetWarning,0825.2,4.99,000.00,020.8,020.0,000.0,029.2,022.1,20.6,0000.0,0004.90,0002.28,0001.47
2023-12-09 02:19:00,SystemResetWarning,0825.2,4.99,000.00,020.8,020.0,000.0,029.2,022.2,20.5,0000.0,0004.69,0002.20,0001.47
2023-12-09 02:20:00,SystemResetWarning,0825.3,5.01,000.00,020.8,020.0,000.0,029.2,022.2,20.5,0000.0,0004.56,0002.14,0001.45
2023-12-09 02:21:00,SystemResetWarning,0825.3,5.01,000.00,020.8,020.0,000.0,029.2,022.2,20.5,0000.0,0004.19,0002.06,0001.44
2023-12-09 02:22:00,SystemResetWarning,0825.2,5.00,000.00,020.8,020.0,000.0,029.2,022.2,20.5,0000.0,0004.00,0002.06,0001.45
2023-12-09 02:23:00,SystemResetWarning,0825.3,4.99,000.00,020.9,020.1,000.0,029.2,022.2,20.5,0000.0,0004.40,0002.06,0001.45
2023-12-09 02:24:00,SystemResetWarning,0825.3,4.99,000.00,020.9,020.1,000.0,029.2,022.2,20.5,0000.0,0004.37,0002.07,0001.45
2023-12-09 02:25:00,SystemResetWarning,0825.4,5.01,000.00,020.9,020.1,000.0,029.2,022.3,20.4,0000.0,0004.51,0002.09,0001.46
2023-12-09 02:26:00,SystemResetWarning,0825.4,5.00,000.00,020.9,020.1,000.0,029.2,022.3,20.4,0000.0,0004.46,0002.05,0001.46
2023-12-09 02:27:00,SystemResetWarning,0825.4,5.00,000.00,020.9,020.1,000.0,029.2,022.3,20.4,0000.0,0004.53,0002.00,0001.46
2023-12-09 02:28:00,SystemResetWarning,0825.4,5.00,000.00,020.9,020.2,000.0,029.2,022.3,20.4,0000.0,0004.30,0001.95,0001.47
2023-12-09 02:29:00,SystemResetWarning,0825.4,5.00,000.00,020.9,020.2,000.0,029.2,022.4,20.4,0000.0,0004.20,0001.94,0001.49
2023-12-09 02:30:00,SystemResetWarning,0825.5,5.00,000.00,021.0,020.2,000.0,029.2,022.4,20.4,0000.0,0004.26,0001.98,0001.52
2023-12-09 02:31:00,SystemResetWarning,0825.5,4.99,000.00,021.0,020.2,000.0,029.2,022.4,20.4,0000.0,0004.22,0001.98,0001.54
2023-12-09 02:32:00,SystemResetWarning,0825.5,4.99,000.00,021.0,020.2,000.0,029.2,022.4,20.4,0000.0,0004.35,0002.01,0001.56
2023-12-09 02:33:00,SystemResetWarning,0825.6,5.01,000.00,021.0,020.2,000.0,029.3,022.4,20.4,0000.0,0004.34,0002.03,0001.56
2023-12-09 02:34:00,SystemResetWarning,0825.6,5.02,000.00,021.0,020.2,000.0,029.3,022.4,20.4,0000.0,0003.75,0002.07,0001.57
2023-12-09 02:35:00,SystemResetWarning,0825.6,4.99,000.00,021.0,020.2,000.0,029.3,022.4,20.4,0000.0,0003.91,0002.11,0001.58
2023-12-09 02:36:00,SystemResetWarning,0825.7,4.99,000.00,021.0,020.3,000.0,029.3,022.4,20.4,0000.0,0003.83,0002.11,0001.60
2023-12-09 02:37:00,SystemResetWarning,0825.7,5.01,000.00,021.1,020.3,000.0,029.3,022.5,20.4,0000.0,0003.74,0002.12,0001.60
2023-12-09 02:38:00,SystemResetWarning,0825.7,5.01,000.00,021.1,020.3,000.0,029.3,022.5,20.4,0000.0,0003.66,0002.16,0001.60
2023-12-09 02:39:00,SystemResetWarning,0825.7,4.99,000.00,021.1,020.3,000.0,029.3,022.5,20.4,0000.0,0003.74,0002.20,0001.60
2023-12-09 02:40:00,SystemResetWarning,0825.7,4.99,000.00,021.1,020.3,000.0,029.3,022.5,20.4,0000.0,0003.85,0002.22,0001.59
2023-12-09 02:41:00,SystemResetWarning,0825.7,5.01,000.00,021.1,020.3,000.0,029.3,022.5,20.4,0000.0,0005.03,0002.25,0001.58
2023-12-09 02:42:00,SystemResetWarning,0825.8,5.01,000.00,021.1,020.3,000.0,029.3,022.5,20.4,0000.0,0005.54,0002.29,0001.59
2023-12-09 02:43:00,SystemResetWarning,0825.8,4.99,000.00,021.1,020.3,000.0,029.3,022.5,20.4,0000.0,0006.34,0002.35,0001.61
2023-12-09 02:44:00,SystemResetWarning,0825.8,4.99,000.00,021.1,020.3,000.0,029.4,022.5,20.4,0000.0,0006.08,0002.34,0001.63
2023-12-09 02:45:00,SystemResetWarning,0825.8,5.00,000.00,021.1,020.3,000.0,029.4,022.5,20.4,0000.0,0006.24,0002.36,0001.64
2023-12-09 02:46:00,SystemResetWarning,0825.8,5.01,000.00,021.1,020.3,000.0,029.4,022.5,20.4,0000.0,0006.33,0002.35,0001.65
2023-12-09 02:47:00,SystemResetWarning,0825.8,5.00,000.00,021.1,020.3,000.0,029.4,022.5,20.4,0000.0,0006.32,0002.36,0001.66
2023-12-09 02:48:00,SystemResetWarning,0825.8,4.99,000.00,021.1,020.3,000.0,029.4,022.5,20.4,0000.0,0006.35,0002.37,0001.66
2023-12-09 02:49:00,SystemResetWarning,0825.8,5.00,000.00,021.2,020.3,000.0,029.4,022.5,20.4,0000.0,0006.42,0002.35,0001.65
2023-12-09 02:50:00,SystemResetWarning,0825.9,5.00,000.00,021.2,020.3,000.0,029.4,022.5,20.4,0000.0,0006.32,0002.31,0001.65
2023-12-09 02:51:00,SystemResetWarning,0825.9,5.01,000.00,021.2,020.4,000.0,029.4,022.6,20.4,0000.0,0007.14,0002.25,0001.64
2023-12-09 02:52:00,SystemResetWarning,0825.9,5.00,000.00,021.2,020.4,000.0,029.4,022.6,20.4,0000.0,0006.70,0002.22,0001.63
2023-12-09 02:53:00,SystemResetWarning,0825.9,5.00,000.00,021.2,020.4,000.0,029.4,022.5,20.4,0000.0,0006.59,0002.19,0001.61
2023-12-09 02:54:00,SystemResetWarning,0825.9,5.01,000.00,021.2,020.4,000.0,029.4,022.5,20.3,0000.0,0005.51,0002.13,0001.58
2023-12-09 02:55:00,SystemResetWarning,0826.0,5.01,000.00,021.2,020.4,000.0,029.4,022.6,20.3,0000.0,0005.64,0002.13,0001.54
2023-12-09 02:56:00,SystemResetWarning,0825.9,5.00,000.00,021.2,020.4,000.0,029.4,022.6,20.3,0000.0,0005.46,0002.08,0001.51
2023-12-09 02:57:00,SystemResetWarning,0825.9,4.99,000.00,021.2,020.4,000.0,029.4,022.6,20.3,0000.0,0005.19,0002.04,0001.49
2023-12-09 02:58:00,SystemResetWarning,0825.9,5.00,000.00,021.2,020.4,000.0,029.5,022.6,20.3,0000.0,0005.09,0002.02,0001.48
2023-12-09 02:59:00,SystemResetWarning,0826.0,5.00,000.00,021.2,020.4,000.0,029.5,022.6,20.3,0000.0,0005.08,0002.00,0001.48
